Hourly Data Report for January 27, 2022

BANCROFT AUTO
ONTARIO
Current Station Operator: ECCC - MSC

45°04'17.000" N
77°52'44.000" W
330.70 m
616I001
71294
WRK

Download Data

Hourly Data (January 2022)
Hourly Data Report for January 27, 2022
TIME
LST
Temp Definition
°C
Dew Point Definition
°C
Rel Hum Definition
%
Precip. Amount Definition
mm

Wind Dir Definition
10's deg

Wind Spd Definition
km/h
Visibility Definition
km
Stn Press Definition
kPa
Hmdx Definition


Wind Chill Definition


Weather Definition


00:00 -19.6 -22.9 75 0.0 17 5   98.42   -24 LegendNANA
01:00 -18.2 -20.8 80 0.0 18 6   98.38   -23 LegendNANA
02:00 -18.2 -20.5 82 0.0 18 2   98.26   -20 LegendNANA
03:00 -16.3 -19.1 79 0.0 18 6   98.22   -21 LegendNANA
04:00 -15.3 -17.9 80 0.0 16 6   98.10   -20 LegendNANA
05:00 -14.3 -17.0 80 0.0 17 6   98.05   -18 LegendNANA
06:00 -14.5 -16.6 84 0.0 18 7   97.99   -19 LegendNANA
07:00 -13.3 -15.2 85 0.0 18 10   97.91   -19 LegendNANA
08:00 -13.2 -15.3 84 0.0 19 8   97.86   -18 LegendNANA
09:00 -11.3 -14.8 75 0.0 19 12   97.73   -17 LegendNANA
10:00 -9.5 -13.8 71 0.0 19 17   97.64   -17 LegendNANA
11:00 -8.1 -12.8 69 0.0 20 11   97.60   -13 LegendNANA
12:00 -7.3 -11.7 71 0.0 20 12   97.49   -13 LegendNANA
13:00 -6.8 -11.2 71 0.0 20 10   97.40   -11 LegendNANA
14:00 -6.1 -10.7 70 0.0 21 10   97.34   -11 LegendNANA
15:00 -6.0 -9.6 76 0.1 21 9   97.29   -10 LegendNANA
16:00 -6.3 -8.8 82 0.0 20 8   97.26   -10 LegendNANA
17:00 -6.5 -8.8 83 0.2 21 5   97.30   -9 LegendNANA
18:00 -6.6 -8.5 86 0.2 20 7   97.32   -10 LegendNANA
19:00 -6.5 -8.4 86 0.2 21 9   97.33   -11 LegendNANA
20:00 -6.3 -8.4 85 0.0 20 8   97.33   -10 LegendNANA
21:00 -6.2 -8.5 84 0.0 21 4   97.34   -8 LegendNANA
22:00 -6.2 -8.6 83 0.0 22 6   97.36   -9 LegendNANA
23:00 -6.3 -8.6 84 0.0 23 5   97.42   -9 LegendNANA

Notes on Data Quality.

Legend

  • E = Estimated
  • M = Missing
  • NA = Not Available*
  • [empty] = Indicates an unobserved value
Date modified: